{"data":{"norad_id":64211,"intl_designator":"2025-117J","name":"STARLINK-34258","alt_names":[],"object_type":"PAYLOAD","status":"ACTIVE","operator":null,"country":"US","launch_date":"2025-05-31","launch_site_code":"AFWTR","launch_vehicle":null,"mission":null,"orbit_class":"UNKNOWN","rcs_meters":null,"size_class":null,"mass_kg":null,"dimensions":null,"purposes":["comms"],"wikipedia_slug":null,"has_3d_model":false,"image_url":null,"decayed_at":null,"tle_current":{"epoch":"2026-05-25T03:01:05.137824Z","epoch_age_seconds":60297,"freshness":"FRESH","line1":"1 64211U 25117J   26145.12575391  .00021576  00000+0  73844-3 0  9990","line2":"2 64211  53.1598  44.1927 0001305  87.5884 272.5266 15.30201880 56237","mean_motion":15.3020188,"eccentricity":0.0001305,"inclination_deg":53.1598,"raan_deg":44.1927,"arg_perigee_deg":87.5884,"mean_anomaly_deg":272.5266,"bstar":0.00073844,"rev_number":5623,"period_min":94.105230088987,"perigee_km":474.31509437142,"apogee_km":476.10381779646,"semimajor_km":6853.3464560839,"source":"CELESTRAK","updated_at":"2026-05-25T13:38:20.318532Z"}}}